Location: Recife
(8.0585°S, 34.8848°W)
Time: 21:25:36
(UTC-03:00)

A-11 Canister half - Pass Details

Date: 15 April 2026
Orbit: 1523 x 1684 km, 47.3° (Epoch: 16 May)

Event Time Altitude Azimuth Distance (km) Brightness Sun altitude
Rises 08:18:18 0° 343° (NNW) 4,830 11.7 41.4°
Reaches altitude 10° 08:22:01 10° 354° (N) 3,822 11.4 42.3°
Maximum altitude 08:30:05 30° 51° (NE) 2,544 11.9 44.2°
Drops below altitude 10° 08:37:56 10° 108° (ESE) 3,732 11.7 45.9°
Sets 08:41:28 0° 118° (ESE) 4,700 11.9 46.7°
